Regional Weather Roundup
Issued by NWS

Home | Current Version | Previous Version | Graphics & Text | Print | Product List | Glossary Off
Versions: 1 2 3 4 5 6 7 8 9 10 11 12 13 14 15 16 17 18 19 20 21 22 23 24 25 26 27 28 29 30 31 32 33 34 35 36 37 38 39 40 41 42 43 44 45 46 47 48 49 50

000
ASUS43 KDTX 211601
RWRMI
MICHIGAN HOURLY REGIONAL WEATHER ROUNDUP
NATIONAL WEATHER SERVICE DETROIT/PONTIAC MI
1200 PM EDT SUN SEP 21 2014

NOTE: "FAIR" INDICATES FEW OR NO CLOUDS BELOW 12,000 FEET WITH NO
SIGNIFICANT WEATHER AND/OR OBSTRUCTION TO VISIBILITY.

MIZ047>049-052>055-059>063-066>070-074>076-081>083-211700-
SOUTHEAST LOWER MICHIGAN

CITY           SKY/WX    TMP DP  RH WIND       PRES   REMARKS
ADRIAN         PTSUNNY   65  50  58 W16G28    29.73S
ALMA           CLOUDY    61  55  79 W12G17    29.66S
ANN ARBOR      PTSUNNY   64  48  56 W18G29    29.70R
BAD AXE        CLOUDY    61  57  88 W14G20    29.61S
CARO           CLOUDY    62  55  80 W12       29.63R
DETROIT CITY   PTSUNNY   70  52  52 W17G24    29.67S
DETROIT        PTSUNNY   67  53  61 SW20G26   29.69R
FLINT          PTSUNNY   66  55  67 W12G23    29.66S
GROSSE ILE     MOSUNNY   70  55  60 W14G20    29.67S
HILLSDALE      CLOUDY    62  50  65 W13G22    29.74S
HOWELL         CLOUDY    62  52  71 W16G24    29.68F

CITY           SKY/WX    TMP DP  RH WIND       PRES   REMARKS
JACKSON        CLOUDY    59  50  72 W14G30    29.72R
LAMBERTVILLE   MOSUNNY   70  52  52 W18G25    29.73R
LANSING        LGT RAIN  59  54  83 W17       29.69F
LAPEER         PTSUNNY   64  52  66 W14G23    29.65S
MASON          CLOUDY    57  53  89 W8        29.71R
MONROE         MOSUNNY   70  54  56 W20G25    29.69S
MT. CLEMENS    PTSUNNY   66  50  57 W17G26    29.64R
PONTIAC        PTSUNNY   63  51  65 W20G28    29.67S
PORT HOPE        N/A     59  56  89 NW8       29.58R
PORT HURON     CLOUDY    66  54  63 W10G18    29.65S
TRI CITIES     LGT RAIN  60  57  89 W13       29.65R
TROY           MOSUNNY   68  52  57 W15G25    29.68S
SAGINAW HB     CLOUDY    64  55  72 W15G22    29.63S
$$
MIZ043>046-050>051-056>058-064>065-071>073-077>080-211700-
SOUTHWEST LOWER MICHIGAN

CITY           SKY/WX    TMP DP  RH WIND       PRES   REMARKS
BATTLE CREEK   CLOUDY    60  52  74 W15       29.74S
BENTON HARBOR  CLOUDY    59  53  80 W20G29    29.80R
BIG RAPIDS     LGT RAIN  57  57  99 NW12G17   29.69R
COLDWATER      CLOUDY    63  52  68 W10G25    29.75S
FREMONT        RAIN      57  55  95 NW17      29.72R
HOLLAND        CLOUDY    60  56  86 NW10G23   29.76R
GRAND RAPIDS   CLOUDY    60  56  86 W17       29.70S
IONIA          PTSUNNY   61  56  82 W9        29.67F
KALAMAZOO      LGT RAIN  58  53  84 W12       29.76S
LUDINGTON      LGT RAIN  55  53  94 N17G31    29.77R
MARSHALL       CLOUDY    58  52  78 W16G22    29.73R
MOUNT PLEASANT RAIN      58  56  94 W9        29.65R
MUSKEGON       LGT RAIN  58  54  86 NW21G28   29.74R FOG
SOUTH HAVEN    CLOUDY    59  55  87 NW16G28   29.78R
$$
MIZ016>042-211700-
NORTHERN LOWER MICHIGAN

CITY           SKY/WX    TMP DP  RH WIND       PRES   REMARKS
ALPENA         CLOUDY    52  52 100 N20       29.68R
BEAVER ISLAND  CLOUDY    53  48  83 N12G23    29.79R
BELLAIRE       RAIN      54  51  91 N8G16     29.74R
CADILLAC       LGT RAIN  55  54  96 NW13G22   29.69R
CHARLEVOIX     LGT RAIN  52  49  92 NE15G23   29.79R
FRANKFORT      RAIN      55  51  87 N13G28    29.77R
GAYLORD        LGT RAIN  50  48  93 NE9G18    29.71R FOG
GRAYLING       LGT RAIN  55  54  95 N14G20    29.69R
HARBOR SPRINGS LGT RAIN  51  47  88 N13G18    29.75R
HOUGHTON LAKE  LGT RAIN  57  53  86 N9        29.66R
MANISTEE       CLOUDY    55  52  88 N15G28    29.76R
OSCODA         RAIN      55  54  96 N16G23    29.62R
PELLSTON       LGT RAIN  50  48  93 N10       29.76R
ROGERS CITY    RAIN      49  49  97 N13G20    29.73R
TRAVERSE CITY  LGT RAIN  55  51  86 N16G28    29.72R
$$
MIZ007>008-015-211700-
EASTERN UPPER MICHIGAN

CITY           SKY/WX    TMP DP  RH WIND       PRES   REMARKS
KINROSS        CLOUDY    52  46  82 N16G23    29.75R
MACKINAC ISLAN CLOUDY    50  47  89 N17G23    29.75R
NEWBERRY       CLOUDY    47  43  85 N17G26    29.82R
S. S. MARIE    CLOUDY    52  42  69 N10G21    29.77R
$$
MIZ004>006-011>014-085-211700-
CENTRAL UPPER MICHIGAN

CITY           SKY/WX    TMP DP  RH WIND       PRES   REMARKS
MANISTIQUE     CLOUDY    49  45  85 N17G25    29.83R
ESCANABA       CLOUDY    50  41  71 N14G31    29.88R
MENOMINEE      CLOUDY    55  45  67 N20G29    29.87R
SAWYER-GWINN   LGT RAIN  43  41  93 N20G26    29.92R
$$
MIZ001>003-009>011-084-211700-
WESTERN UPPER MICHIGAN

CITY           SKY/WX    TMP DP  RH WIND       PRES   REMARKS
IRON MOUNTAIN  CLOUDY    51  43  74 N18G25    29.92R
HOUGHTON       CLOUDY    45  37  73 N16G23    30.00R
COPPER HARBOR    N/A     45  37  73 NE20G30   29.99R
IRONWOOD       CLOUDY    46  41  81 N7        30.03R
$$

ABBREVIATIONS USED IN REMARKS
   TC - TEMPERATURE IN CELSIUS
  WCI - WIND CHILL INDEX
   HX - HEAT INDEX
  VSB - VISIBILITY




USA.gov is the U.S. government's official web portal to all federal, state and local government web resources and services.